Weather History for KEWB - April, 2014

Change the Weather History Date:

Sunday, April 6, 2014

  Actual Average Record
Temperature  
Mean Temperature 44 °F -  
Max Temperature 55 °F 50 °F 62 °F (1956)
Min Temperature 32 °F 37 °F 22 °F (1982)
Degree Days  
Heating Degree Days 22    
Moisture  
Dew Point 24 °F    
Average Humidity 52    
Maximum Humidity 76    
Minimum Humidity 24    
Precipitation  
Precipitation 0.00 in - - ()
Sea Level Pressure  
Sea Level Pressure 30.09 in    
Wind  
Wind Speed 9 mph (West)    
Max Wind Speed 15 mph    
Max Gust Speed 20 mph    
Visibility 10 miles    
Events      
Averages and records for this station are not official NWS values.
T = Trace of Precipitation, MM = Missing Value Source: NWS Daily Summary

Daily Weather History Graph

Daily Weather History Graph

Search for Another Location

Airport or City:

Trip Planner

Search our weather history database for the weather conditions in past years. The results will help you decide how hot, cold, wet, or windy it might be!

Date:

Astronomy

Apr. 06, 2014 Rise Set
Actual Time 6:18 AM EDT 7:14 PM EDT
Civil Twilight 5:50 AM EDT 7:43 PM EDT
Nautical Twilight 5:16 AM EDT 8:16 PM EDT
Astronomical Twilight 4:41 AM EDT 8:51 PM EDT
Moon 11:13 AM EDT (4/6) 1:11 AM EDT (4/6)
Length of Visible Light 13h 52m
Length of Day
12h 56m
Waxing Crescent, 43% of the Moon is Illuminated
Apr 6
Waxing Crescent
Apr 7
First Quarter
Apr 15
Full
Apr 22
Last Quarter
Apr 29
New

Hourly Weather History & Observations

Time (EDT) Temp. Windchill Dew Point Humidity Pressure Visibility Wind Dir Wind Speed Gust Speed Precip Events Conditions
12:53 AM 37.0 °F 29.3 °F 21.9 °F 54% 29.97 in 10.0 mi WNW 11.5 mph 19.6 mph N/A   Clear
1:53 AM 36.0 °F 29.6 °F 21.9 °F 57% 29.98 in 10.0 mi WNW 8.1 mph - N/A   Clear
2:53 AM 35.1 °F 27.9 °F 21.0 °F 57% 29.99 in 10.0 mi West 9.2 mph - N/A   Clear
3:53 AM 34.0 °F 26.6 °F 21.9 °F 61% 30.00 in 10.0 mi West 9.2 mph - N/A   Clear
4:53 AM 33.1 °F 26.9 °F 21.9 °F 64% 30.03 in 10.0 mi West 6.9 mph - N/A   Clear
5:53 AM 32.0 °F 24.8 °F 21.9 °F 66% 30.06 in 10.0 mi West 8.1 mph - N/A   Clear
6:53 AM 33.1 °F 26.9 °F 24.1 °F 70% 30.10 in 10.0 mi West 6.9 mph - N/A   Clear
7:53 AM 37.9 °F 32.1 °F 25.0 °F 60% 30.12 in 10.0 mi West 8.1 mph - N/A   Clear
8:53 AM 39.9 °F 33.4 °F 21.9 °F 49% 30.12 in 10.0 mi West 10.4 mph - N/A   Clear
9:53 AM 42.1 °F 37.1 °F 21.9 °F 45% 30.13 in 10.0 mi NW 8.1 mph - N/A   Clear
10:53 AM 46.0 °F 42.5 °F 21.9 °F 39% 30.13 in 10.0 mi West 6.9 mph - N/A   Clear
11:53 AM 46.9 °F - 21.9 °F 37% 30.12 in 10.0 mi WSW 13.8 mph 18.4 mph N/A   Clear
12:53 PM 50.0 °F - 21.9 °F 33% 30.10 in 10.0 mi West 11.5 mph 18.4 mph N/A   Clear
1:53 PM 52.0 °F - 19.9 °F 28% 30.09 in 10.0 mi WNW 10.4 mph 18.4 mph N/A   Clear
2:53 PM 55.0 °F - 19.0 °F 24% 30.09 in 10.0 mi West 12.7 mph 18.4 mph N/A   Clear
3:53 PM 53.1 °F - 28.9 °F 40% 30.09 in 10.0 mi South 13.8 mph - N/A   Clear
4:53 PM 51.1 °F - 28.9 °F 43% 30.10 in 10.0 mi South 15.0 mph - N/A   Clear
5:53 PM 50.0 °F - 27.0 °F 41% 30.10 in 10.0 mi SSW 11.5 mph - N/A   Clear
6:53 PM 48.0 °F - 28.0 °F 46% 30.10 in 10.0 mi SSW 3.5 mph - N/A   Clear
7:53 PM 45.0 °F 43.5 °F 28.9 °F 53% 30.12 in 10.0 mi WSW 3.5 mph - N/A   Clear
8:53 PM 41.0 °F - 30.0 °F 65% 30.14 in 10.0 mi Calm Calm - N/A   Clear
9:53 PM 37.9 °F - 28.9 °F 70% 30.17 in 10.0 mi Calm Calm - N/A   Clear
10:53 PM 37.0 °F 30.4 °F 30.0 °F 76% 30.19 in 10.0 mi SW 9.2 mph - N/A   Clear
11:53 PM 39.0 °F - 28.9 °F 67% 30.19 in 10.0 mi Calm Calm - N/A   Clear